Tracking 31027 objects as of 19-Jul-2025
HD Live streaming from Space Station
objects crossing your sky now

STARLINK-30924

Track STARLINK-30924 now!
10-day predictions
STARLINK-30924 is classified as:


NORAD ID: 58412
Int'l Code: 2023-180L
Perigee: 494.2 km
Apogee: 496.2 km
Inclination: 43.0 °
Period: 94.4 minutes
Semi major axis: 6866 km
RCS: Unknown
Launch date: November 22, 2023
Source: United States (US)
Launch site: AIR FORCE EASTERN TEST RANGE (AFETR)
Your satellite tracking list
Your tracking list is empty




NASA's NSSDC Master Catalog

Two Line Element Set (TLE):
1 58412U 23180L   25199.27376885  .00000582  00000-0  32105-4 0  9996
2 58412  43.0006 151.0576 0001471 274.1272  85.9411 15.25908065 93481
Source of the keplerian elements: AFSPC